Dewpoint
32 33 35 36 37 38 39 38 38 41 43 47 47 46 46 46 47 47 48 47 48 48
31 33 34 36 38 39 39 39 40 41 44 46 46 46 46 46 46 47 48 48 49 48
31 33 35 36 37 38 39 40 41 43 44 45 46 45 45 45 45 46 47 48 48 48
30 33 34 36 38 39 41 42 43 44 44 45 46 46 45 45 44 44 45 47 48 48
29 31 33 35 37 40 41 44 45 45 45 45 46 46 46 45 45 44 44 45 45 46
28 29 30 33 37 39 41 41 42 42 42 44 44 46 45 45 46 46 46 46 46 47
28 28 29 32 36 38 39 39 39 40 39 41 41 43 42 42 42 42 44 45 46 46
29 29 29 30 33 36 36 38 37 37 37 37 38 40 41 40 41 41 42 44 45 48
28 27 28 29 30 32 34 34 35 35 35 35 35 38 41 41 41 41 40 41 44 47
27 26 27 28 29 29 31 33 33 32 31 31 32 37 39 41 41 40 41 41 42 45
27 26 27 27 28 28 30 30 30 30 30 30 31 36 39 40 40 40 40 40 43 45
26 25 25 25 26 28 28 29 29 29 28 29 30 34 38 39 39 40 40 40 41 42
26 25 24 25 25 27 27 27 27 30 30 30 30 33 36 38 37 37 36 37 37 39
26 24 23 25 25 25 26 25 25 26 26 28 30 32 33 37 36 35 34 34 35 36
Lifted_Index
14 11 8 9 10 10 10 11 12 12 11 11 12 13 14 14 13 12 12 11 11 10
14 10 8 9 10 10 11 11 11 11 11 11 12 13 14 14 13 12 12 11 10 10
14 11 9 9 10 10 10 10 10 10 11 12 12 13 13 13 13 12 11 10 9 9
15 12 10 9 9 10 10 10 10 10 11 11 12 12 12 12 12 11 11 10 9 8
16 15 12 10 9 10 10 10 10 10 11 11 11 11 11 11 11 10 10 9 8 7
16 16 15 13 11 11 10 10 10 10 10 10 10 10 10 10 10 10 10 9 7 6
16 16 17 16 15 13 12 11 11 11 11 10 10 10 10 10 10 10 9 8 7 5
16 16 17 17 17 16 14 14 13 12 12 11 11 10 10 10 10 9 9 8 6 5
16 16 17 17 17 17 17 16 16 15 15 14 13 12 12 11 10 10 9 8 7 6
16 16 16 17 17 17 17 18 18 17 17 17 16 16 14 12 11 10 10 9 7 7
16 16 17 17 17 17 17 17 18 18 18 18 18 18 15 13 11 10 10 9 8 8
16 16 17 17 17 17 18 18 18 18 18 18 18 18 16 13 11 10 10 10 10 9
15 16 17 17 18 18 18 18 18 18 18 18 18 19 17 15 12 11 11 11 10 10
15 16 16 18 18 19 18 18 18 18 18 18 19 19 18 16 13 11 11 11 11 11